Location: Dillon
(41.1766°N, 107.0923°W)
Time: 21:03:10
(UTC+00:00)

X-37B - Visible Passes

Search period start: 24 January 2022 00:00
Search period end: 03 February 2022 00:00
Orbit: 334 x 337 km, 45.0° (Epoch: 11 January)

Date Brightness Start Highest point End Pass type
(mag) Time Alt. Az. Time Alt. Az. Time Alt. Az.
25 Jan 2.8 01:47:01 10° S 01:47:44 13° SSE 01:47:44 13° SSE visible
26 Jan 2.3 02:06:13 10° SW 02:07:38 23° SSW 02:07:38 23° SSW visible
27 Jan 2.6 00:52:29 10° S 00:54:05 14° SE 00:55:39 10° ESE visible
27 Jan 3.0 02:26:22 10° WSW 02:27:26 20° WSW 02:27:26 20° WSW visible
28 Jan 1.3 01:11:40 10° SW 01:14:17 34° SSE 01:15:56 18° E visible
28 Jan 3.9 02:46:57 10° W 02:47:10 12° W 02:47:10 12° W visible
29 Jan 0.2 01:31:48 10° WSW 01:34:39 86° SSE 01:35:37 37° ENE visible
30 Jan 0.7 01:52:22 10° W 01:55:08 49° NNW 01:55:16 48° N visible
31 Jan 2.1 02:13:03 10° WNW 02:14:53 28° NW 02:14:53 28° NW visible
01 Feb 0.8 00:57:48 10° W 01:00:34 49° NNW 01:03:15 11° ENE visible
01 Feb 3.2 02:33:41 10° WNW 02:34:29 16° WNW 02:34:29 16° WNW visible
02 Feb 1.3 01:18:29 10° WNW 01:21:09 36° N 01:22:51 18° NE visible
